Stations météo

réclame
Mon MeteoGroup
Vlissingen, Pays-Bas (6310): Température de l'air & dewpoint: 15.01.2019 17:00:00 - 21.01.2019 17:00:00 (CET)Vlissingen, Pays-Bas (6310): Température de l'air 5cm: 15.01.2019 17:00:00 - 21.01.2019 17:00:00 (CET)Vlissingen, Pays-Bas (6310): Vitesse du vent & gusts: 15.01.2019 17:00:00 - 21.01.2019 17:00:00 (CET)Vlissingen, Pays-Bas (6310): Direction du vent: 15.01.2019 17:00:00 - 21.01.2019 17:00:00 (CET)Vlissingen, Pays-Bas (6310): reduced air pressure: 15.01.2019 17:00:00 - 21.01.2019 17:00:00 (CET)Vlissingen, Pays-Bas (6310): visibility: 15.01.2019 17:00:00 - 21.01.2019 17:00:00 (CET)Vlissingen, Pays-Bas (6310): Quantités de précipitations: 15.01.2019 17:00:00 - 21.01.2019 17:00:00 (CET)
Date & Time tt [°C] td [°C] tt 5cm [°C] ff [km/h] ff [knt] fx [km/h] fx [knt] dd ppp [hPa] vv [km] rr [mm]
21.01.2019 17:00:00 3,0 0,0 2,1 21 11 - - SW 1020,5 10 -
21.01.2019 16:00:00 3,9 0,3 3,4 18 10 22 12 SW 1020,9 10 0,0
21.01.2019 15:00:00 4,2 0,8 4,2 21 11 25 14 SW 1021,4 10 0,0
21.01.2019 14:00:00 4,1 0,9 5,0 15 8 18 10 SW 1022,3 10 0,0
21.01.2019 13:00:00 3,2 0,4 3,9 15 8 18 10 WSW 1023,1 10 0,0
21.01.2019 12:00:00 2,6 0,2 2,6 11 6 14 8 W 1023,6 10 0,0
21.01.2019 11:00:00 1,7 -0,5 1,4 13 7 14 8 W 1024,0 10 0,0
21.01.2019 10:00:00 1,1 -0,8 0,1 9 5 11 6 WSW 1023,7 10 0,0
21.01.2019 09:00:00 1,0 -1,2 -1,3 9 5 11 6 WSW 1023,8 10 0,0
21.01.2019 08:00:00 0,5 -2,1 -2,5 9 5 11 6 WSW 1023,7 10 0,0
21.01.2019 07:00:00 -0,7 -3,0 -3,1 8 4 11 6 WSW 1023,4 10 0,0
21.01.2019 06:00:00 0,0 -4,0 -4,3 4 2 7 4 NW 1023,0 10 0,0
21.01.2019 05:00:00 -2,0 -3,8 -4,5 2 1 4 2 NE 1023,4 10 0,0
21.01.2019 04:00:00 -1,0 -3,0 -4,0 5 3 7 4 NE 1023,5 10 0,0
21.01.2019 03:00:00 -1,7 -3,7 -3,9 5 3 7 4 NNE 1023,8 10 0,0
21.01.2019 02:00:00 -2,0 -4,0 -4,0 9 5 11 6 N 1023,5 10 0,0
21.01.2019 01:00:00 -1,3 -3,8 -3,1 8 4 7 4 ENE 1023,2 10 0,0
21.01.2019 00:00:00 -0,9 -3,7 -3,0 8 4 11 6 NE 1023,0 10 0,0
20.01.2019 23:00:00 0,4 -3,1 -2,7 8 4 14 8 ENE 1022,5 10 0,0
20.01.2019 22:00:00 -0,1 -3,9 -1,8 13 7 14 8 ENE 1022,1 10 0,0
20.01.2019 21:00:00 0,0 -3,9 -1,9 11 6 22 12 ENE 1021,7 10 0,0
20.01.2019 20:00:00 -0,3 -3,4 -1,5 15 8 22 12 NE 1021,1 10 0,0
20.01.2019 19:00:00 0,6 -3,1 -1,1 11 6 18 10 NE 1020,4 10 0,0
20.01.2019 18:00:00 0,8 -3,0 -0,6 13 7 18 10 NE 1019,6 10 0,0
20.01.2019 17:00:00 1,6 -2,8 0,4 13 7 18 10 ENE 1018,9 10 0,0
20.01.2019 16:00:00 1,8 -2,6 1,3 15 8 22 12 ENE 1018,4 10 0,0
20.01.2019 15:00:00 1,7 -2,5 1,9 15 8 18 10 NE 1018,0 10 0,0
20.01.2019 14:00:00 1,6 -3,4 2,2 16 9 22 12 E 1017,9 10 0,0
20.01.2019 13:00:00 1,1 -2,9 1,9 15 8 22 12 ENE 1017,9 10 0,0
20.01.2019 12:00:00 -0,1 -3,0 0,5 11 6 18 10 NE 1017,6 10 0,0
20.01.2019 11:00:00 -0,8 -2,7 -0,5 11 6 18 10 ENE 1017,1 10 0,0
20.01.2019 10:00:00 -2,1 -3,2 -2,3 15 8 18 10 ENE 1016,3 10 0,0
20.01.2019 09:00:00 -2,7 -3,8 -3,5 13 7 14 8 NE 1015,6 10 0,0
20.01.2019 08:00:00 -2,2 -3,7 -3,3 11 6 14 8 ENE 1014,7 15 0,0
20.01.2019 07:00:00 -2,4 -3,9 -3,3 9 5 14 8 ENE 1014,2 10 0,0
20.01.2019 06:00:00 0,3 -2,4 -0,8 18 10 25 14 E 1013,7 10 0,0
20.01.2019 05:00:00 0,4 -2,8 -0,8 18 10 25 14 E 1013,5 10 0,0
20.01.2019 04:00:00 0,8 -2,0 -0,2 22 12 25 14 ESE 1013,4 10 0,0
20.01.2019 03:00:00 0,9 -2,3 -0,2 18 10 25 14 E 1013,3 10 0,0
20.01.2019 02:00:00 1,6 -1,3 0,5 21 11 25 14 ESE 1013,1 10 0,0
20.01.2019 01:00:00 2,1 -1,6 0,5 18 10 29 16 ESE 1013,0 10 0,0
20.01.2019 00:00:00 1,9 -1,2 0,8 22 12 29 16 ESE 1013,0 25 0,0
19.01.2019 23:00:00 1,9 -1,5 0,8 22 12 29 16 E 1012,8 10 0,0
19.01.2019 22:00:00 1,9 -1,3 0,9 24 13 29 16 ESE 1012,4 10 0,0
19.01.2019 21:00:00 2,1 -0,8 1,1 24 13 32 18 E 1012,3 10 0,0
19.01.2019 20:00:00 1,9 -1,0 0,9 18 10 29 16 E 1012,4 10 0,0
19.01.2019 19:00:00 2,6 -1,6 1,6 26 14 29 16 ESE 1012,4 10 0,0
19.01.2019 18:00:00 2,9 -1,7 1,6 28 15 32 18 ESE 1012,2 10 0,0
19.01.2019 17:00:00 3,2 -1,2 1,9 28 15 36 19 SE 1012,2 10 0,0
19.01.2019 16:00:00 3,3 -1,1 2,9 24 13 32 18 SSE 1012,4 10 0,0
19.01.2019 15:00:00 3,3 -1,3 3,6 26 14 32 18 SE 1012,8 10 0,0
19.01.2019 14:00:00 3,0 -0,9 3,2 26 14 32 18 SE 1013,3 10 0,0
19.01.2019 13:00:00 2,4 -0,8 2,8 26 14 32 18 SE 1014,1 10 0,0
19.01.2019 12:00:00 2,1 -1,0 2,5 29 16 36 19 SSE 1014,6 10 0,0
19.01.2019 11:00:00 1,6 -1,2 1,9 31 17 36 19 SE 1015,0 10 0,0
19.01.2019 10:00:00 1,0 -1,3 0,6 29 16 36 19 SSE 1015,1 10 0,0
19.01.2019 09:00:00 0,7 -1,6 -0,1 28 15 36 19 SSE 1015,0 10 0,0
19.01.2019 08:00:00 0,7 -1,4 -0,1 28 15 36 19 SSE 1015,1 10 0,0
19.01.2019 07:00:00 1,0 -1,6 0,2 31 17 36 19 SE 1015,3 10 0,0
19.01.2019 06:00:00 1,2 -1,1 0,3 28 15 32 18 SE 1015,6 10 0,0
19.01.2019 05:00:00 1,3 -0,5 0,3 28 15 32 18 SE 1016,2 10 0,0
19.01.2019 04:00:00 1,1 -0,3 0,4 28 15 36 19 SE 1016,6 8 0,0
19.01.2019 03:00:00 1,2 -0,1 0,5 24 13 29 16 SSE 1017,1 8 0,0
19.01.2019 02:00:00 1,2 0,0 0,5 22 12 29 16 SSE 1017,3 9 0,0
19.01.2019 01:00:00 1,2 -0,1 0,5 22 12 29 16 S 1017,9 9 0,0
19.01.2019 00:00:00 1,5 -0,2 0,8 22 12 29 16 S 1018,1 11 0,0
18.01.2019 23:00:00 1,8 0,2 1,0 22 12 29 16 S 1018,2 10 0,0
18.01.2019 22:00:00 2,1 0,9 1,1 21 11 25 14 S 1018,4 5 0,0
18.01.2019 21:00:00 2,2 1,3 1,6 24 13 32 18 S 1018,4 5 0,0
18.01.2019 20:00:00 2,7 1,8 2,2 21 11 25 14 SSE 1018,5 6 0,0
18.01.2019 19:00:00 3,2 2,0 2,5 24 13 29 16 S 1018,6 7 0,0
18.01.2019 18:00:00 4,2 2,8 3,5 21 11 25 14 S 1018,5 10 0,0
18.01.2019 17:00:00 4,9 3,5 4,3 21 11 25 14 S 1018,6 10 0,0
18.01.2019 16:00:00 4,8 3,7 4,7 16 9 18 10 SSE 1018,8 9 0,0
18.01.2019 15:00:00 4,1 3,1 4,3 11 6 14 8 SSE 1019,2 10 0,0
18.01.2019 14:00:00 3,5 2,7 3,9 9 5 14 8 SE 1019,3 9 0,0
18.01.2019 13:00:00 3,0 2,5 3,4 8 4 14 8 SSE 1019,7 9 0,0
18.01.2019 12:00:00 2,8 2,3 3,3 13 7 14 8 S 1019,9 7 0,0
18.01.2019 11:00:00 3,4 2,8 3,1 11 6 14 8 SSE 1019,9 8 0,0
18.01.2019 10:00:00 4,0 2,8 2,5 5 3 7 4 SSE 1019,6 10 0,0
18.01.2019 09:00:00 3,6 2,1 1,5 5 3 11 6 SW 1019,3 10 0,0
18.01.2019 08:00:00 3,1 1,5 0,9 5 3 7 4 SW 1018,7 10 0,0
18.01.2019 07:00:00 2,6 1,5 1,0 9 5 14 8 S 1018,5 10 0,0
18.01.2019 06:00:00 3,3 2,2 0,1 4 2 7 4 - 1018,0 10 0,0
18.01.2019 05:00:00 3,2 1,6 0,7 5 3 11 6 WSW 1017,9 10 0,0
18.01.2019 04:00:00 3,3 1,7 2,1 16 9 22 12 SW 1017,7 10 0,0
18.01.2019 03:00:00 4,1 2,0 2,2 11 6 14 8 SSW 1017,2 10 0,0
18.01.2019 02:00:00 3,0 1,2 0,1 2 1 4 2 - 1016,8 10 0,0
18.01.2019 01:00:00 3,4 0,6 2,0 9 5 25 14 NNW 1016,5 10 0,0
18.01.2019 00:00:00 4,0 1,3 2,8 13 7 22 12 N 1015,5 10 0,7
17.01.2019 23:00:00 4,3 1,8 2,7 15 8 25 14 NW 1014,9 10 0,8
17.01.2019 22:00:00 3,3 2,0 1,8 18 10 50 27 NW 1014,3 8 1,5
17.01.2019 21:00:00 4,5 2,0 3,6 34 18 54 29 WNW 1013,4 10 0,3
17.01.2019 20:00:00 4,6 1,2 3,3 21 11 58 31 NW 1012,4 10 0,1
17.01.2019 19:00:00 5,0 0,2 4,0 26 14 43 23 N 1011,5 10 0,0
17.01.2019 18:00:00 5,1 -1,2 4,0 35 19 54 29 NNW 1010,2 10 0,1
17.01.2019 17:00:00 3,7 1,9 3,0 35 19 65 35 NW 1009,0 10 0,4
17.01.2019 16:00:00 4,7 -0,1 4,1 42 23 65 35 WNW 1007,8 10 0,0
17.01.2019 15:00:00 4,5 -0,4 4,0 39 21 54 29 WNW 1007,3 10 0,0
17.01.2019 14:00:00 4,7 0,8 4,2 37 20 54 29 NW 1006,7 10 0,0
17.01.2019 13:00:00 4,5 1,0 3,8 29 16 58 31 NW 1005,9 10 0,1
17.01.2019 12:00:00 4,3 1,4 3,7 42 23 65 35 NNW 1005,4 9 0,2
17.01.2019 11:00:00 4,2 2,6 4,0 37 20 50 27 NW 1004,4 7 0,4
17.01.2019 10:00:00 5,1 3,0 4,3 18 10 36 19 NW 1003,1 10 0,7
17.01.2019 09:00:00 4,4 3,2 3,8 18 10 29 16 WNW 1002,3 9 1,3
17.01.2019 08:00:00 4,8 3,7 4,2 31 17 43 23 W 1001,7 6 1,5
17.01.2019 07:00:00 4,6 4,1 4,2 26 14 32 18 SW 1001,6 8 0,0
17.01.2019 06:00:00 4,5 4,1 4,0 26 14 32 18 SW 1001,7 7 0,0
17.01.2019 05:00:00 4,7 4,2 4,1 24 13 29 16 SW 1002,3 7 0,0
17.01.2019 04:00:00 5,6 4,6 4,9 22 12 29 16 WSW 1002,4 10 0,0
17.01.2019 03:00:00 6,5 4,8 5,8 29 16 36 19 W 1002,6 10 0,0
17.01.2019 02:00:00 6,7 4,2 5,8 26 14 36 19 W 1002,7 10 0,0
17.01.2019 01:00:00 6,4 5,5 5,8 18 10 25 14 W 1002,8 10 0,0
17.01.2019 00:00:00 5,8 4,6 5,0 9 5 14 8 W 1002,9 10 0,2
16.01.2019 23:00:00 5,9 4,7 5,5 22 12 36 19 NNW 1002,2 10 0,0
16.01.2019 22:00:00 6,6 5,3 6,1 46 25 58 31 SW 1001,3 10 0,0
16.01.2019 21:00:00 6,5 4,7 6,0 44 24 61 33 SW 1001,4 10 0,0
16.01.2019 20:00:00 6,2 4,4 5,7 41 22 50 27 SW 1001,9 10 0,1
16.01.2019 19:00:00 6,2 4,2 5,6 39 21 50 27 SSW 1002,6 9 0,5
16.01.2019 18:00:00 6,3 4,1 6,0 37 20 50 27 SSW 1003,2 10 0,0
16.01.2019 17:00:00 6,4 3,7 6,0 39 21 50 27 SSW 1003,9 10 0,0
16.01.2019 16:00:00 6,6 4,1 6,3 34 18 43 23 SSW 1004,9 10 0,0
16.01.2019 15:00:00 6,6 4,0 6,4 28 15 40 21 SSW 1005,4 10 0,0
16.01.2019 14:00:00 6,5 4,0 6,4 34 18 47 25 SW 1006,3 10 0,0
16.01.2019 13:00:00 6,6 3,8 6,7 37 20 47 25 SW 1007,5 10 0,0
16.01.2019 12:00:00 6,4 3,8 6,2 35 19 47 25 SSW 1008,5 10 0,0
16.01.2019 11:00:00 6,4 3,8 6,2 39 21 47 25 SW 1009,3 10 0,0
16.01.2019 10:00:00 6,3 3,7 5,9 37 20 47 25 SW 1010,0 10 0,0
16.01.2019 09:00:00 6,3 4,0 5,9 39 21 47 25 SW 1010,5 10 0,0
16.01.2019 08:00:00 6,4 4,4 6,1 41 22 50 27 SW 1010,5 10 0,0
16.01.2019 07:00:00 6,5 4,7 6,2 39 21 47 25 SW 1010,8 10 0,0
16.01.2019 06:00:00 6,6 5,3 6,2 35 19 43 23 SW 1011,5 10 0,0
16.01.2019 05:00:00 6,6 5,9 6,4 35 19 43 23 SW 1012,3 8 0,0
16.01.2019 04:00:00 6,9 6,2 6,6 37 20 43 23 SW 1012,9 8 0,0
16.01.2019 03:00:00 7,2 6,4 6,9 34 18 40 21 SW 1013,5 10 0,0
16.01.2019 02:00:00 7,2 6,5 6,9 28 15 40 21 SW 1014,0 10 0,0
16.01.2019 01:00:00 7,3 6,3 7,0 29 16 36 19 SW 1014,5 10 0,0
16.01.2019 00:00:00 7,6 5,8 7,2 29 16 43 23 SW 1014,9 10 0,0
15.01.2019 23:00:00 7,8 5,4 7,3 35 19 47 25 WSW 1015,4 10 0,0
15.01.2019 22:00:00 7,7 5,4 7,2 34 18 40 21 WSW 1015,9 10 0,0
15.01.2019 21:00:00 7,7 5,4 7,2 35 19 47 25 WSW 1016,1 10 0,0
15.01.2019 20:00:00 7,7 5,2 7,2 34 18 40 21 WSW 1016,5 10 0,0
15.01.2019 19:00:00 7,6 5,1 7,1 34 18 43 23 WSW 1016,9 10 0,0
15.01.2019 18:00:00 7,8 5,1 7,3 44 24 54 29 W 1017,1 10 0,0
15.01.2019 17:00:00 7,6 5,5 7,2 42 23 50 27 W 1017,4 10 0,0

tt = Température de l'air
td = dewpoint
tt 5cm = Température de l'air 5cm
ff = Vitesse du vent
fx = gusts
dd = Direction du vent
ppp = reduced air pressure
vv = visibility
rr = Quantités de précipitations

stations d'obs. à proximité